Location: Rounton
(54.4000°N, 1.3500°W)
Time: 20:03:49
(UTC+00:00)

BlueWalker 3 - Pass Details

Date: 14 September 2025
Orbit: 451 x 463 km, 53.2° (Epoch: 15 January)

Event Time Altitude Azimuth Distance (km) Brightness Sun altitude
Rises 22:23:47 0° 247° (WSW) 2,455 5.7 -24.0°
Reaches altitude 10° 22:25:55 10° 244° (WSW) 1,585 4.6 -24.2°
Enters shadow 22:26:22 13° 242° (WSW) 1,409 4.4 -24.3°
